| time (UTC) | temp F | wind direction | speed MPH | gust MPH | rain 1hr in | rain 24hr in | rain mn in | humidity % | barometer mb |
| 20260508203000 | 70 | 120 | 6.0 | 17.0 | 0.00 | 0.00 | 0.00 | 40 | 1011.6 |
| 20260508202001 | 70 | 114 | 7.0 | 16.0 | 0.00 | 0.00 | 0.00 | 35 | 1011.5 |
| 20260508201021 | 70 | 134 | 4.0 | 12.0 | 0.00 | 0.00 | 0.00 | 46 | 1011.6 |
| 20260508200000 | 70 | 97 | 7.0 | 13.0 | 0.00 | 0.00 | 0.00 | 38 | 1011.9 |
| 20260508195001 | 69 | 119 | 3.0 | 12.0 | 0.00 | 0.00 | 0.00 | 38 | 1012.0 |
| 20260508194023 | 69 | 123 | 6.0 | 16.0 | 0.00 | 0.00 | 0.00 | 34 | 1012.1 |
| 20260508193000 | 69 | 112 | 5.0 | 12.0 | 0.00 | 0.00 | 0.00 | 35 | 1012.1 |
| 20260508192000 | 68 | 86 | 8.0 | 14.0 | 0.00 | 0.00 | 0.00 | 36 | 1012.2 |
| 20260508191001 | 69 | 133 | 5.0 | 16.0 | 0.00 | 0.00 | 0.00 | 43 | 1012.6 |
| 20260508190000 | 68 | 342 | 2.0 | 14.0 | 0.00 | 0.00 | 0.00 | 42 | 1012.7 |
| 20260508185001 | 68 | 342 | 3.0 | 13.0 | 0.00 | 0.00 | 0.00 | 40 | 1012.9 |
| 20260508184001 | 68 | 342 | 8.0 | 13.0 | 0.00 | 0.00 | 0.00 | 37 | 1013.1 |
| 20260508183001 | 68 | 342 | 4.0 | 11.0 | 0.00 | 0.00 | 0.00 | 42 | 1013.2 |
| 20260508182002 | 68 | 342 | 4.0 | 10.0 | 0.00 | 0.00 | 0.00 | 38 | 1013.4 |
| 20260508181022 | 67 | 342 | 4.0 | 14.0 | 0.00 | 0.00 | 0.00 | 39 | 1013.6 |
| 20260508180001 | 66 | 342 | 6.0 | 16.0 | 0.00 | 0.00 | 0.00 | 39 | 1013.7 |
| 20260508175001 | 67 | 342 | 5.0 | 16.0 | 0.00 | 0.00 | 0.00 | 39 | 1014.2 |
| 20260508174001 | 67 | 342 | 4.0 | 10.0 | 0.00 | 0.00 | 0.00 | 41 | 1014.4 |
| 20260508173001 | 66 | 342 | 4.0 | 16.0 | 0.00 | 0.00 | 0.00 | 44 | 1014.7 |
| 20260508172001 | 66 | 342 | 7.0 | 14.0 | 0.00 | 0.00 | 0.00 | 45 | 1014.8 |
| 20260508171001 | 67 | 166 | 3.0 | 7.0 | 0.00 | 0.00 | 0.00 | 45 | 1015.0 |
| 20260508170001 | 67 | 175 | 1.0 | 6.0 | 0.00 | 0.00 | 0.00 | 51 | 1015.1 |
| 20260508165022 | 66 | 342 | 3.0 | 10.0 | 0.00 | 0.00 | 0.00 | 46 | 1015.4 |
| 20260508164001 | 65 | 342 | 7.0 | 10.0 | 0.00 | 0.00 | 0.00 | 49 | 1015.6 |
| 20260508163001 | 64 | 342 | 6.0 | 14.0 | 0.00 | 0.00 | 0.00 | 46 | 1015.6 |
| 20260508162000 | 64 | 342 | 5.0 | 12.0 | 0.00 | 0.00 | 0.00 | 48 | 1015.7 |
| 20260508161002 | 64 | 342 | 5.0 | 12.0 | 0.00 | 0.00 | 0.00 | 50 | 1016.0 |
| 20260508160000 | 64 | 342 | 4.0 | 7.0 | 0.00 | 0.00 | 0.00 | 48 | 1016.0 |
| 20260508155001 | 63 | 342 | 2.0 | 10.0 | 0.00 | 0.00 | 0.00 | 50 | 1016.1 |
| 20260508154000 | 63 | 342 | 6.0 | 12.0 | 0.00 | 0.00 | 0.00 | 46 | 1016.3 |
| 20260508153000 | 62 | 342 | 4.0 | 9.0 | 0.00 | 0.00 | 0.00 | 53 | 1016.4 |
| 20260508152000 | 62 | 342 | 6.0 | 11.0 | 0.00 | 0.00 | 0.00 | 49 | 1016.5 |
| 20260508151000 | 61 | 342 | 4.0 | 9.0 | 0.00 | 0.00 | 0.00 | 50 | 1016.6 |
| 20260508150000 | 60 | 342 | 1.0 | 6.0 | 0.00 | 0.00 | 0.00 | 55 | 1016.6 |
| 20260508145001 | 59 | 342 | 2.0 | 8.0 | 0.00 | 0.00 | 0.00 | 55 | 1016.5 |
| 20260508144001 | 58 | 342 | 4.0 | 8.0 | 0.00 | 0.00 | 0.00 | 57 | 1016.6 |
| 20260508143000 | 57 | 342 | 3.0 | 7.0 | 0.00 | 0.00 | 0.00 | 63 | 1016.6 |
| 20260508142022 | 56 | 342 | 5.0 | 9.0 | 0.00 | 0.00 | 0.00 | 66 | 1016.7 |
| 20260508141002 | 55 | 342 | 2.0 | 5.0 | 0.00 | 0.00 | 0.00 | 68 | 1016.7 |
| 20260508140001 | 54 | 342 | 3.0 | 6.0 | 0.00 | 0.00 | 0.00 | 71 | 1016.7 |
| 20260508135001 | 52 | 128 | 3.0 | 7.0 | 0.00 | 0.00 | 0.00 | 70 | 1016.6 |
| 20260508134000 | 51 | 124 | 2.0 | 6.0 | 0.00 | 0.00 | 0.00 | 72 | 1016.7 |
| 20260508133001 | 51 | 198 | 2.0 | 7.0 | 0.00 | 0.00 | 0.00 | 72 | 1016.6 |
| 20260508132001 | 50 | 125 | 2.0 | 5.0 | 0.00 | 0.00 | 0.00 | 74 | 1016.6 |
| 20260508131001 | 49 | 120 | 2.0 | 5.0 | 0.00 | 0.00 | 0.00 | 76 | 1016.6 |
| 20260508130001 | 48 | 127 | 2.0 | 5.0 | 0.00 | 0.00 | 0.00 | 79 | 1016.5 |
| 20260508125000 | 46 | 157 | 2.0 | 4.0 | 0.00 | 0.00 | 0.00 | 81 | 1016.5 |
| 20260508124023 | 44 | 125 | 0.0 | 4.0 | 0.00 | 0.00 | 0.00 | 84 | 1016.5 |
| 20260508123001 | 43 | 123 | 2.0 | 4.0 | 0.00 | 0.00 | 0.00 | 86 | 1016.4 |
| 20260508122002 | 42 | 107 | 2.0 | 3.0 | 0.00 | 0.00 | 0.00 | 88 | 1016.5 |
| 20260508121001 | 42 | 106 | 1.0 | 3.0 | 0.00 | 0.00 | 0.00 | 88 | 1016.5 |
| 20260508120022 | 41 | 106 | 1.0 | 2.0 | 0.00 | 0.00 | 0.00 | 88 | 1016.4 |
| 20260508115000 | 41 | 106 | 1.0 | 3.0 | 0.00 | 0.00 | 0.00 | 88 | 1016.3 |
| 20260508114001 | 41 | 102 | 1.0 | 2.0 | 0.00 | 0.00 | 0.00 | 89 | 1016.1 |
| 20260508113002 | 40 | 103 | 0.0 | 3.0 | 0.00 | 0.00 | 0.00 | 88 | 1016.0 |
| 20260508112022 | 40 | 102 | 1.0 | 2.0 | 0.00 | 0.00 | 0.00 | 89 | 1015.9 |
| 20260508111000 | 40 | 102 | 0.0 | 2.0 | 0.00 | 0.00 | 0.00 | 88 | 1015.8 |
| 20260508110001 | 40 | 103 | 1.0 | 3.0 | 0.00 | 0.00 | 0.00 | 86 | 1015.6 |
| 20260508105001 | 41 | 102 | 2.0 | 4.0 | 0.00 | 0.00 | 0.00 | 85 | 1015.7 |
| 20260508104000 | 41 | 115 | 2.0 | 4.0 | 0.00 | 0.00 | 0.00 | 85 | 1015.6 |
| 20260508103023 | 41 | 111 | 3.0 | 4.0 | 0.00 | 0.00 | 0.00 | 86 | 1015.6 |
| 20260508102002 | 41 | 99 | 2.0 | 3.0 | 0.00 | 0.00 | 0.00 | 87 | 1015.5 |
| 20260508101000 | 40 | 99 | 2.0 | 3.0 | 0.00 | 0.00 | 0.00 | 87 | 1015.5 |
| 20260508100022 | 41 | 100 | 0.0 | 3.0 | 0.00 | 0.00 | 0.00 | 85 | 1015.5 |
| 20260508095001 | 41 | 100 | 2.0 | 4.0 | 0.00 | 0.00 | 0.00 | 84 | 1015.5 |
| 20260508094021 | 42 | 106 | 2.0 | 3.0 | 0.00 | 0.00 | 0.00 | 82 | 1015.5 |
| 20260508093001 | 42 | 100 | 1.0 | 2.0 | 0.00 | 0.00 | 0.00 | 82 | 1015.5 |
| 20260508092022 | 42 | 100 | 1.0 | 2.0 | 0.00 | 0.00 | 0.00 | 83 | 1015.4 |
| 20260508091000 | 42 | 101 | 0.0 | 1.0 | 0.00 | 0.00 | 0.00 | 83 | 1015.5 |
| 20260508090001 | 42 | 101 | 0.0 | 1.0 | 0.00 | 0.00 | 0.00 | 84 | 1015.5 |
| 20260508085001 | 42 | 100 | 0.0 | 1.0 | 0.00 | 0.00 | 0.00 | 84 | 1015.4 |
| 20260508084000 | 41 | 100 | 0.0 | 0.0 | 0.00 | 0.00 | 0.00 | 85 | 1015.5 |
| 20260508083001 | 41 | 100 | 0.0 | 0.0 | 0.00 | 0.00 | 0.00 | 85 | 1015.6 |
| 20260508082001 | 41 | 101 | 0.0 | 3.0 | 0.00 | 0.00 | 0.00 | 85 | 1015.5 |
| 20260508081000 | 41 | 98 | 0.0 | 3.0 | 0.00 | 0.00 | 0.00 | 86 | 1015.5 |
| 20260508080002 | 42 | 96 | 0.0 | 2.0 | 0.00 | 0.00 | 0.00 | 85 | 1015.5 |
| 20260508075001 | 42 | 95 | 1.0 | 2.0 | 0.00 | 0.00 | 0.00 | 85 | 1015.3 |
| 20260508074022 | 42 | 95 | 0.0 | 1.0 | 0.00 | 0.00 | 0.00 | 85 | 1015.2 |
| 20260508073001 | 43 | 94 | 0.0 | 3.0 | 0.00 | 0.00 | 0.00 | 84 | 1015.2 |
| 20260508072001 | 43 | 90 | 1.0 | 3.0 | 0.00 | 0.00 | 0.00 | 83 | 1015.2 |
| 20260508071001 | 43 | 88 | 2.0 | 3.0 | 0.00 | 0.00 | 0.00 | 83 | 1015.2 |
| 20260508070000 | 43 | 82 | 2.0 | 3.0 | 0.00 | 0.00 | 0.00 | 83 | 1015.2 |
| 20260508065001 | 43 | 81 | 0.0 | 2.0 | 0.00 | 0.00 | 0.00 | 84 | 1015.2 |
| 20260508064000 | 43 | 81 | 1.0 | 2.0 | 0.00 | 0.00 | 0.00 | 83 | 1015.2 |
| 20260508063001 | 43 | 81 | 0.0 | 2.0 | 0.00 | 0.00 | 0.00 | 82 | 1015.2 |
| 20260508062023 | 44 | 81 | 1.0 | 2.0 | 0.00 | 0.00 | 0.00 | 82 | 1015.2 |
| 20260508061022 | 44 | 82 | 0.0 | 2.0 | 0.00 | 0.00 | 0.00 | 82 | 1015.3 |
| 20260508060001 | 45 | 79 | 0.0 | 0.0 | 0.00 | 0.00 | 0.00 | 80 | 1015.3 |
| 20260508055001 | 45 | 81 | 0.0 | 1.0 | 0.00 | 0.00 | 0.00 | 79 | 1015.5 |
| 20260508054023 | 45 | 81 | 1.0 | 5.0 | 0.00 | 0.00 | 0.00 | 77 | 1015.5 |
| 20260508053001 | 46 | 80 | 1.0 | 2.0 | 0.00 | 0.00 | 0.00 | 72 | 1015.6 |
| 20260508052000 | 47 | 80 | 2.0 | 3.0 | 0.00 | 0.00 | 0.00 | 68 | 1015.6 |
| 20260508051001 | 48 | 273 | 0.0 | 0.0 | 0.00 | 0.00 | 0.00 | 67 | 1015.6 |
| 20260508050001 | 49 | 273 | 0.0 | 0.0 | 0.00 | 0.00 | 0.00 | 57 | 1015.4 |
| 20260508045023 | 49 | 273 | 0.0 | 0.0 | 0.00 | 0.00 | 0.00 | 57 | 1015.3 |
| 20260508044001 | 49 | 273 | 0.0 | 0.0 | 0.00 | 0.00 | 0.00 | 57 | 1015.4 |
| 20260508043001 | 50 | 273 | 0.0 | 0.0 | 0.00 | 0.00 | 0.00 | 57 | 1015.3 |
| 20260508042022 | 50 | 274 | 0.0 | 0.0 | 0.00 | 0.00 | 0.00 | 57 | 1015.4 |
| 20260508041001 | 50 | 271 | 0.0 | 0.0 | 0.00 | 0.00 | 0.00 | 58 | 1015.4 |
| 20260508040001 | 50 | 273 | 0.0 | 0.0 | 0.00 | 0.00 | 0.00 | 57 | 1015.4 |
| 20260508035001 | 50 | 273 | 0.0 | 0.0 | 0.00 | 0.00 | 0.00 | 57 | 1015.5 |
| 20260508034001 | 50 | 273 | 0.0 | 0.0 | 0.00 | 0.00 | 0.00 | 57 | 1015.4 |
| 20260508033000 | 50 | 274 | 0.0 | 0.0 | 0.00 | 0.00 | 0.00 | 58 | 1015.5 |
| 20260508032001 | 50 | 274 | 0.0 | 0.0 | 0.00 | 0.00 | 0.00 | 58 | 1015.5 |
| 20260508031001 | 50 | 275 | 0.0 | 0.0 | 0.00 | 0.00 | 0.00 | 59 | 1015.5 |
| 20260508030000 | 50 | 275 | 0.0 | 0.0 | 0.00 | 0.00 | 0.00 | 63 | 1015.5 |
| 20260508025001 | 50 | 275 | 0.0 | 0.0 | 0.00 | 0.00 | 0.00 | 59 | 1015.4 |
| 20260508024000 | 50 | 275 | 0.0 | 0.0 | 0.00 | 0.00 | 0.00 | 61 | 1015.3 |
| 20260508023001 | 50 | 268 | 0.0 | 0.0 | 0.00 | 0.00 | 0.00 | 60 | 1015.2 |
| 20260508022001 | 50 | 264 | 0.0 | 0.0 | 0.00 | 0.00 | 0.00 | 62 | 1015.3 |
| 20260508021002 | 52 | 265 | 0.0 | 0.0 | 0.00 | 0.00 | 0.00 | 68 | 1015.1 |
| 20260508020001 | 52 | 264 | 0.0 | 0.0 | 0.00 | 0.00 | 0.00 | 53 | 1014.9 |
| 20260508015000 | 53 | 271 | 0.0 | 1.0 | 0.00 | 0.00 | 0.00 | 52 | 1014.6 |
| 20260508014001 | 53 | 272 | 1.0 | 1.0 | 0.00 | 0.00 | 0.00 | 51 | 1014.5 |
| 20260508013001 | 54 | 273 | 0.0 | 0.0 | 0.00 | 0.00 | 0.00 | 51 | 1014.4 |
| 20260508012002 | 54 | 275 | 0.0 | 1.0 | 0.00 | 0.00 | 0.00 | 49 | 1014.3 |
| 20260508011001 | 54 | 275 | 0.0 | 0.0 | 0.00 | 0.00 | 0.00 | 48 | 1014.2 |
| 20260508010004 | 55 | 275 | 0.0 | 1.0 | 0.00 | 0.00 | 0.00 | 47 | 1014.1 |
| 20260508005002 | 55 | 274 | 0.0 | 0.0 | 0.00 | 0.00 | 0.00 | 47 | 1014.0 |
| 20260508004001 | 56 | 275 | 0.0 | 0.0 | 0.00 | 0.00 | 0.00 | 46 | 1013.9 |
| 20260508003002 | 56 | 275 | 0.0 | 1.0 | 0.00 | 0.00 | 0.00 | 45 | 1013.7 |
| 20260508002023 | 57 | 275 | 0.0 | 2.0 | 0.00 | 0.00 | 0.00 | 45 | 1013.7 |
| 20260508001000 | 58 | 274 | 1.0 | 3.0 | 0.00 | 0.00 | 0.00 | 44 | 1013.7 |
| 20260508000001 | 58 | 273 | 1.0 | 5.0 | 0.00 | 0.00 | 0.00 | 43 | 1013.6 |
| 20260507235001 | 59 | 285 | 1.0 | 5.0 | 0.00 | 0.00 | 0.00 | 43 | 1013.6 |
| 20260507234022 | 60 | 285 | 2.0 | 7.0 | 0.00 | 0.00 | 0.00 | 39 | 1013.5 |
| 20260507233001 | 62 | 272 | 3.0 | 7.0 | 0.00 | 0.00 | 0.00 | 39 | 1013.4 |
| 20260507232000 | 62 | 295 | 1.0 | 3.0 | 0.00 | 0.00 | 0.00 | 39 | 1013.5 |
| 20260507231001 | 62 | 334 | 3.0 | 7.0 | 0.00 | 0.00 | 0.00 | 39 | 1013.4 |
| 20260507230022 | 62 | 231 | 1.0 | 4.0 | 0.00 | 0.00 | 0.00 | 39 | 1013.3 |
| 20260507225022 | 62 | 299 | 2.0 | 7.0 | 0.00 | 0.00 | 0.00 | 37 | 1013.3 |
| 20260507224001 | 64 | 270 | 2.0 | 6.0 | 0.00 | 0.00 | 0.00 | 37 | 1013.2 |
| 20260507223002 | 64 | 245 | 1.0 | 4.0 | 0.00 | 0.00 | 0.00 | 40 | 1013.4 |
| 20260507222001 | 64 | 229 | 1.0 | 5.0 | 0.00 | 0.00 | 0.00 | 39 | 1013.5 |
| 20260507220001 | 64 | 310 | 1.0 | 7.0 | 0.00 | 0.00 | 0.00 | 40 | 1013.4 |
| 20260507215001 | 63 | 304 | 2.0 | 9.0 | 0.00 | 0.00 | 0.00 | 40 | 1013.3 |
| 20260507214000 | 63 | 308 | 4.0 | 8.0 | 0.00 | 0.00 | 0.00 | 42 | 1013.3 |
| 20260507213001 | 64 | 223 | 2.0 | 8.0 | 0.00 | 0.00 | 0.00 | 44 | 1013.2 |
| 20260507212001 | 63 | 231 | 2.0 | 8.0 | 0.00 | 0.00 | 0.00 | 40 | 1013.3 |
| 20260507211000 | 64 | 152 | 1.0 | 7.0 | 0.00 | 0.00 | 0.00 | 39 | 1013.1 |
| 20260507210001 | 64 | 283 | 2.0 | 6.0 | 0.00 | 0.00 | 0.00 | 40 | 1013.2 |
| 20260507205000 | 63 | 275 | 2.0 | 10.0 | 0.00 | 0.00 | 0.00 | 41 | 1013.2 |
| 20260507204022 | 64 | 269 | 4.0 | 7.0 | 0.00 | 0.00 | 0.00 | 43 | 1013.1 |